Weather History for Harrisburg, IL

Change the Weather History Date:

Thursday, August 21, 2014

  Actual Average (KMWA) Record (KMWA)
Temperature  
Mean Temperature 81 °F -  
Max Temperature 90 °F 86 °F 104 °F (1983)
Min Temperature 72 °F 63 °F 54 °F (1991)
Cooling Degree Days 16    
Growing Degree Days 31 (Base 50)    
Moisture  
Dew Point 74 °F    
Average Humidity 80    
Maximum Humidity 100    
Minimum Humidity 55    
Precipitation  
Precipitation 0.00 in - - ()
Sea Level Pressure  
Sea Level Pressure 30.03 in    
Wind  
Wind Speed 5 mph (SSW)    
Max Wind Speed 12 mph    
Max Gust Speed 17 mph    
Visibility 10 miles    
Events      
Averages and records for this station are not official NWS values.
T = Trace of Precipitation, MM = Missing Value Source: NWS Daily Summary

Daily Weather History Graph

Daily Weather History Graph

Search for Another Location

Airport:

Trip Planner

Search our weather history database for the weather conditions in past years. The results will help you decide how hot, cold, wet, or windy it might be!

Date:

Astronomy

Aug. 21, 2014 Rise Set
Actual Time 6:14 AM CDT 7:39 PM CDT
Civil Twilight 5:47 AM CDT 8:06 PM CDT
Nautical Twilight 5:14 AM CDT 8:39 PM CDT
Astronomical Twilight 4:39 AM CDT 9:14 PM CDT
Moon 2:46 AM CDT (8/21) 5:06 PM CDT (8/21)
Length of Visible Light 14h 19m
Length of Day
13h 24m
Waning Crescent, 13% of the Moon is Illuminated
Aug 21
Waning Crescent
Aug 25
New
Sep 2
First Quarter
Sep 8
Full
Sep 15
Last Quarter

Hourly Weather History & Observations

Time (CDT) Temp. Heat Index Dew Point Humidity Pressure Visibility Wind Dir Wind Speed Gust Speed Precip Events Conditions
12:15 AM 75.4 °F - 73.4 °F 94% 30.03 in 10.0 mi SE 3.5 mph - N/A   Clear
12:35 AM 74.7 °F - 73.4 °F 96% 30.03 in 10.0 mi SE 3.5 mph - N/A   Clear
12:55 AM 75.4 °F - 73.4 °F 94% 30.03 in 10.0 mi Calm Calm - N/A   Clear
1:15 AM 74.7 °F - 73.4 °F 96% 30.02 in 10.0 mi Calm Calm - N/A   Clear
1:35 AM 75.7 °F - 73.4 °F 92% 30.02 in 10.0 mi SSW 3.5 mph - N/A   Clear
1:55 AM 76.6 °F - 73.6 °F 90% 30.02 in 10.0 mi SSW 3.5 mph - N/A   Clear
2:15 AM 75.9 °F - 73.4 °F 92% 30.03 in 10.0 mi ENE 4.6 mph - N/A   Clear
2:35 AM 75.2 °F - 73.4 °F 94% 30.02 in 10.0 mi East 4.6 mph - N/A   Scattered Clouds
2:55 AM 75.2 °F - 73.6 °F 95% 30.02 in 10.0 mi East 4.6 mph - N/A   Clear
3:15 AM 74.3 °F - 73.4 °F 97% 30.03 in 10.0 mi ESE 4.6 mph - N/A   Clear
3:35 AM 74.5 °F - 73.6 °F 97% 30.03 in 10.0 mi ESE 4.6 mph - N/A   Clear
3:55 AM 73.9 °F - 73.6 °F 99% 30.03 in 10.0 mi ESE 4.6 mph - N/A   Clear
4:15 AM 73.9 °F - 73.6 °F 99% 30.03 in 10.0 mi SE 3.5 mph - N/A   Clear
4:35 AM 73.9 °F - 73.6 °F 99% 30.02 in 10.0 mi SSE 4.6 mph - N/A   Clear
4:55 AM 73.6 °F - 73.6 °F 100% 30.02 in 10.0 mi SSE 3.5 mph - N/A   Clear
5:15 AM 73.6 °F - 73.6 °F 100% 30.02 in 10.0 mi SE 3.5 mph - N/A   Clear
5:35 AM 73.2 °F - 73.2 °F 100% 30.02 in 10.0 mi SSE 4.6 mph - N/A   Clear
5:55 AM 72.7 °F - 72.7 °F 100% 30.02 in 7.0 mi South 4.6 mph - N/A   Clear
6:15 AM 73.8 °F - 73.8 °F 100% 30.02 in 7.0 mi South 4.6 mph - N/A   Clear
6:35 AM 75.2 °F - 74.3 °F 97% 30.03 in 10.0 mi SSW 3.5 mph - N/A   Clear
6:55 AM 74.7 °F - 74.3 °F 99% 30.04 in 7.0 mi SW 3.5 mph - N/A   Scattered Clouds
7:15 AM 75.6 °F - 74.8 °F 98% 30.04 in 7.0 mi SSW 4.6 mph - N/A   Scattered Clouds
7:35 AM 76.1 °F - 75.2 °F 97% 30.04 in 7.0 mi SW 4.6 mph - N/A   Scattered Clouds
7:55 AM 76.8 °F - 75.4 °F 95% 30.04 in 10.0 mi SW 4.6 mph - N/A   Clear
8:15 AM 78.3 °F - 75.9 °F 92% 30.05 in 10.0 mi SW 6.9 mph - N/A   Scattered Clouds
8:35 AM 79.0 °F - 75.9 °F 90% 30.06 in 10.0 mi SW 8.1 mph - N/A   Scattered Clouds
8:55 AM 80.2 °F 85.5 °F 75.4 °F 85% 30.06 in 10.0 mi WSW 8.1 mph - N/A   Scattered Clouds
9:15 AM 81.7 °F 88.5 °F 75.6 °F 82% 30.07 in 10.0 mi WSW 6.9 mph - N/A   Scattered Clouds
9:35 AM 83.3 °F 90.8 °F 75.2 °F 76% 30.07 in 10.0 mi WSW 9.2 mph - N/A   Clear
9:55 AM 83.7 °F 91.0 °F 74.7 °F 74% 30.07 in 10.0 mi WSW 10.4 mph - N/A   Clear
10:15 AM 84.6 °F 92.8 °F 75.2 °F 73% 30.08 in 10.0 mi WSW 10.4 mph - N/A   Clear
10:35 AM 85.3 °F 94.2 °F 75.2 °F 72% 30.08 in 10.0 mi WSW 8.1 mph - N/A   Clear
10:55 AM 86.0 °F 94.6 °F 74.7 °F 69% 30.08 in 10.0 mi SW 10.4 mph - N/A   Clear
11:15 AM 86.7 °F 95.5 °F 74.7 °F 67% 30.07 in 10.0 mi WSW 8.1 mph 16.1 mph N/A   Clear
11:35 AM 86.9 °F 95.9 °F 74.7 °F 67% 30.07 in 10.0 mi WSW 6.9 mph - N/A   Clear
11:55 AM 88.0 °F 96.5 °F 73.9 °F 63% 30.07 in 10.0 mi SW 11.5 mph 17.3 mph N/A   Clear
12:15 PM 88.7 °F 97.7 °F 74.1 °F 62% 30.07 in 10.0 mi SW 8.1 mph - N/A   Clear
12:35 PM 89.6 °F 98.7 °F 74.1 °F 60% 30.06 in 10.0 mi SSW 6.9 mph - N/A   Clear
12:55 PM 89.6 °F 97.7 °F 73.2 °F 58% 30.06 in 10.0 mi SSW 9.2 mph - N/A   Clear
1:15 PM 90.3 °F 97.7 °F 72.1 °F 55% 30.05 in 10.0 mi SW 9.2 mph - N/A   Clear
1:35 PM 90.0 °F 96.9 °F 72.0 °F 55% 30.04 in 10.0 mi WSW 6.9 mph - N/A   Clear
1:55 PM 89.8 °F 99.2 °F 74.3 °F 60% 30.04 in 10.0 mi South 8.1 mph - N/A   Clear
2:15 PM 90.7 °F 99.6 °F 73.6 °F 57% 30.03 in 10.0 mi SSW 11.5 mph - N/A   Clear
2:35 PM 90.0 °F 97.9 °F 72.7 °F 57% 30.03 in 10.0 mi SSW 11.5 mph - N/A   Clear
2:55 PM 90.0 °F 99.0 °F 74.1 °F 59% 30.02 in 10.0 mi SSW 9.2 mph - N/A   Clear
3:15 PM 90.1 °F 99.4 °F 74.3 °F 59% 30.01 in 10.0 mi South 10.4 mph - N/A   Clear
3:35 PM 90.5 °F 99.7 °F 73.9 °F 58% 30.01 in 10.0 mi SSW 6.9 mph - N/A   Clear
3:55 PM 89.6 °F 97.7 °F 72.9 °F 58% 30.01 in 10.0 mi South 9.2 mph - N/A   Clear
4:15 PM 89.6 °F 98.7 °F 73.9 °F 60% 30.01 in 10.0 mi SSW 9.2 mph - N/A   Clear
4:35 PM 88.7 °F 95.7 °F 72.3 °F 58% 30.01 in 10.0 mi SW 9.2 mph - N/A   Clear
4:55 PM 89.6 °F 97.7 °F 72.9 °F 58% 30.01 in 10.0 mi SSW 10.4 mph - N/A   Clear
5:15 PM 88.5 °F 97.8 °F 74.5 °F 63% 30.00 in 10.0 mi SW 8.1 mph - N/A   Clear
5:35 PM 87.4 °F 95.8 °F 73.9 °F 64% 30.00 in 10.0 mi SW 6.9 mph - N/A   Clear
5:55 PM 86.5 °F 94.6 °F 74.1 °F 66% 29.99 in 10.0 mi SSW 5.8 mph - N/A   Clear
6:15 PM 85.6 °F 93.8 °F 74.3 °F 69% 29.99 in 10.0 mi South 4.6 mph - N/A   Clear
6:35 PM 85.1 °F 93.7 °F 75.0 °F 72% 29.99 in 10.0 mi South 5.8 mph - N/A   Clear
6:55 PM 84.7 °F 93.2 °F 75.2 °F 73% 29.98 in 10.0 mi South 4.6 mph - N/A   Clear
7:15 PM 84.2 °F 92.6 °F 75.6 °F 75% 29.98 in 10.0 mi SSW 3.5 mph - N/A   Clear
7:35 PM 82.8 °F 90.4 °F 75.7 °F 79% 29.98 in 10.0 mi South 4.6 mph - N/A   Clear
7:55 PM 82.0 °F 89.1 °F 75.6 °F 81% 29.98 in 10.0 mi South 4.6 mph - N/A   Clear
8:15 PM 81.9 °F 88.7 °F 75.6 °F 81% 29.98 in 10.0 mi South 5.8 mph - N/A   Clear
8:35 PM 81.5 °F 88.0 °F 75.4 °F 82% 29.99 in 10.0 mi SSW 4.6 mph - N/A   Clear
8:55 PM 81.0 °F 86.7 °F 75.0 °F 82% 29.99 in 10.0 mi South 5.8 mph - N/A   Clear
9:15 PM 80.1 °F 85.1 °F 75.2 °F 85% 30.00 in 10.0 mi SSW 4.6 mph - N/A   Clear
9:35 PM 79.9 °F - 75.2 °F 86% 30.01 in 10.0 mi SSW 3.5 mph - N/A   Clear
9:55 PM 79.9 °F - 75.0 °F 85% 30.01 in 10.0 mi South 5.8 mph - N/A   Clear
10:15 PM 80.1 °F 84.8 °F 74.7 °F 83% 30.02 in 10.0 mi SSW 4.6 mph - N/A   Clear
10:35 PM 79.7 °F - 74.5 °F 84% 30.03 in 10.0 mi SW 4.6 mph - N/A   Clear
10:55 PM 79.7 °F - 74.5 °F 84% 30.03 in 10.0 mi Calm Calm - N/A   Clear
11:15 PM 79.0 °F - 74.5 °F 86% 30.03 in 10.0 mi Calm Calm - N/A   Clear
11:35 PM 78.6 °F - 74.7 °F 88% 30.03 in 10.0 mi Calm Calm - N/A   Clear
11:55 PM 77.4 °F - 75.0 °F 92% 30.04 in 10.0 mi Calm Calm - N/A   Clear